STARLINK-5248 (54174 NORAD) Tracking and Keplerian Element Data

This shows tracking and keplerian element data for the satellite.

Feedback or suggestion? Click here.




ElementValue
Catalog54174
NameSTARLINK-5248
Epoch Orbit384
Epoch Day325.25001157
Epoch Year2022
RAAN23.3217
Inclination53.2172
Eccentricity0.0002193
Argument of Perigee27.5232
Mean Anonmoly17.6626
Mean Motion15.73189513
Decay Rate0.00030419
L11 54174U 22141T 22325.25001157 .00030419 00000+0 22046-3 0 9999
L22 54174 53.2172 23.3217 0002193 27.5232 17.6626 15.73189513 3843



Live tracking and technical data element details for STARLINK-5248 (NORAD 54174). STARLINK-5248 can be tracked NOW for your location showing map with azimuth and elevation plus other details from your city location.







IsCatalogInMostPopularTable: catalog: 54174, numindb: 4
Update: records affected: 1



GetName: 54174 STARLINK-5248

Hit Count: updated at: Mon, 28 Nov 2022 21:33:57 GMT